Tiempo cada hora Aberlady

Hoy, 22 Octubre, Jueves

Tiempo Temperatura Precipitaciones Viento Presión Humedad
00:00 +9°C° 0 mm 3 mps 740 mmHg 90%
01:00 +9°C° 0 mm 3 mps 740 mmHg 90%
02:00 +9°C° 0 mm 3 mps 740 mmHg 91%
03:00 +9°C° 0 mm 3 mps 740 mmHg 92%
04:00 +8°C° 0.2 mm 4 mps 741 mmHg 92%
05:00 +8°C° 0.2 mm 5 mps 741 mmHg 92%
06:00 +8°C° 0.2 mm 5 mps 741 mmHg 92%
07:00 +8°C° 0.1 mm 5 mps 742 mmHg 90%
08:00 +9°C° 0.1 mm 5 mps 742 mmHg 88%
09:00 +9°C° 0.1 mm 5 mps 743 mmHg 86%
10:00 +9°C° 0.1 mm 5 mps 744 mmHg 84%
11:00 +11°C° 0.1 mm 4 mps 745 mmHg 81%
12:00 +11°C° 0.1 mm 4 mps 745 mmHg 79%
13:00 +11°C° 0 mm 3 mps 746 mmHg 79%
14:00 +12°C° 0 mm 2 mps 746 mmHg 79%
15:00 +12°C° 0 mm 1 mps 747 mmHg 79%
16:00 +10°C° 0 mm 2 mps 747 mmHg 82%
17:00 +9°C° 0 mm 3 mps 747 mmHg 85%
18:00 +8°C° 0 mm 4 mps 747 mmHg 88%
19:00 +7°C° 0 mm 4 mps 748 mmHg 87%
20:00 +6°C° 0 mm 5 mps 748 mmHg 87%
21:00 +5°C° 0 mm 5 mps 748 mmHg 86%
22:00 +5°C° 0 mm 5 mps 748 mmHg 85%
23:00 +5°C° 0 mm 5 mps 748 mmHg 83%

Mañana, 23 Octubre, Viernes

Tiempo Temperatura Precipitaciones Viento Presión Humedad
00:00 +5°C° 0 mm 5 mps 747 mmHg 81%
01:00 +5°C° 0 mm 4 mps 747 mmHg 82%
02:00 +5°C° 0 mm 4 mps 746 mmHg 82%
03:00 +5°C° 0 mm 4 mps 746 mmHg 82%
04:00 +5°C° 0.1 mm 4 mps 746 mmHg 83%
05:00 +6°C° 0.1 mm 4 mps 745 mmHg 85%
06:00 +6°C° 0.1 mm 4 mps 745 mmHg 86%
07:00 +6°C° 0.1 mm 4 mps 745 mmHg 87%
08:00 +7°C° 0.1 mm 4 mps 745 mmHg 89%
09:00 +7°C° 0.1 mm 4 mps 745 mmHg 90%
10:00 +8°C° 0.1 mm 4 mps 745 mmHg 85%
11:00 +8°C° 0.1 mm 5 mps 745 mmHg 80%
12:00 +9°C° 0.1 mm 5 mps 745 mmHg 75%
13:00 +9°C° 0.1 mm 5 mps 745 mmHg 76%
14:00 +8°C° 0.1 mm 5 mps 746 mmHg 76%
15:00 +8°C° 0.1 mm 6 mps 746 mmHg 76%
16:00 +7°C° 0 mm 6 mps 746 mmHg 79%
17:00 +6°C° 0 mm 5 mps 746 mmHg 81%
18:00 +5°C° 0 mm 5 mps 747 mmHg 84%
19:00 +5°C° 0 mm 5 mps 747 mmHg 84%
20:00 +3°C° 0 mm 5 mps 747 mmHg 85%
21:00 +4°C° 0 mm 4 mps 747 mmHg 86%
22:00 +4°C° 0 mm 4 mps 747 mmHg 86%
23:00 +4°C° 0 mm 4 mps 747 mmHg 85%

Pasado mañana, 24 Octubre, Sábado

Tiempo Temperatura Precipitaciones Viento Presión Humedad
00:00 +4°C° 0 mm 4 mps 746 mmHg 85%
01:00 +3°C° 0 mm 5 mps 745 mmHg 85%
02:00 +4°C° 0 mm 6 mps 744 mmHg 86%
03:00 +4°C° 0 mm 6 mps 743 mmHg 86%
04:00 +5°C° 0.2 mm 7 mps 742 mmHg 86%
05:00 +6°C° 0.2 mm 9 mps 741 mmHg 86%
06:00 +7°C° 0.2 mm 10 mps 739 mmHg 86%
07:00 +7°C° 0.1 mm 10 mps 739 mmHg 86%
08:00 +8°C° 0.1 mm 10 mps 738 mmHg 86%
09:00 +8°C° 0.1 mm 10 mps 737 mmHg 86%
10:00 +10°C° 0.6 mm 9 mps 737 mmHg 86%
11:00 +10°C° 0.6 mm 8 mps 736 mmHg 87%
12:00 +10°C° 0.6 mm 8 mps 736 mmHg 88%
13:00 +10°C° 1.8 mm 7 mps 735 mmHg 89%
14:00 +9°C° 1.8 mm 7 mps 735 mmHg 90%
15:00 +9°C° 1.8 mm 6 mps 734 mmHg 91%
16:00 +8°C° 0.5 mm 6 mps 734 mmHg 89%
17:00 +8°C° 0.5 mm 6 mps 734 mmHg 88%
18:00 +8°C° 0.5 mm 7 mps 735 mmHg 86%
19:00 +6°C° 0 mm 7 mps 735 mmHg 85%
20:00 +6°C° 0 mm 7 mps 735 mmHg 83%
21:00 +5°C° 0 mm 7 mps 735 mmHg 82%
22:00 +5°C° 0 mm 7 mps 735 mmHg 82%
23:00 +5°C° 0 mm 8 mps 735 mmHg 82%

, 25 Octubre, Domingo

Tiempo Temperatura Precipitaciones Viento Presión Humedad
00:00 +5°C° 0 mm 8 mps 735 mmHg 82%
01:00 +5°C° 0 mm 8 mps 735 mmHg 83%
02:00 +5°C° 0 mm 8 mps 734 mmHg 84%
03:00 +5°C° 0 mm 8 mps 734 mmHg 84%
04:00 +5°C° 0 mm 9 mps 734 mmHg 83%
05:00 +5°C° 0 mm 9 mps 734 mmHg 82%
06:00 +5°C° 0 mm 10 mps 734 mmHg 80%
07:00 +5°C° 0 mm 10 mps 734 mmHg 79%
08:00 +6°C° 0 mm 10 mps 735 mmHg 78%
09:00 +6°C° 0 mm 11 mps 735 mmHg 77%
10:00 +7°C° 0 mm 11 mps 735 mmHg 74%
11:00 +8°C° 0 mm 10 mps 736 mmHg 71%
12:00 +8°C° 0 mm 10 mps 736 mmHg 68%
13:00 +8°C° 0 mm 10 mps 736 mmHg 69%
14:00 +8°C° 0 mm 9 mps 736 mmHg 71%
15:00 +9°C° 0 mm 8 mps 737 mmHg 72%
16:00 +7°C° 0 mm 8 mps 737 mmHg 76%
17:00 +6°C° 0 mm 7 mps 738 mmHg 80%
18:00 +6°C° 0 mm 7 mps 738 mmHg 83%
19:00 +5°C° 0 mm 6 mps 739 mmHg 84%
20:00 +5°C° 0 mm 6 mps 739 mmHg 84%
21:00 +5°C° 0 mm 6 mps 740 mmHg 85%
22:00 +5°C° 0 mm 6 mps 740 mmHg 84%
23:00 +5°C° 0 mm 6 mps 741 mmHg 83%

25 Octubre, Domingo

Tiempo Temperatura Precipitaciones Viento Presión Humedad
00:00 +5°C° 0 mm 8 mps 735 mmHg 82%
01:00 +5°C° 0 mm 8 mps 735 mmHg 83%
02:00 +5°C° 0 mm 8 mps 734 mmHg 84%
03:00 +5°C° 0 mm 8 mps 734 mmHg 84%
04:00 +5°C° 0 mm 9 mps 734 mmHg 83%
05:00 +5°C° 0 mm 9 mps 734 mmHg 82%
06:00 +5°C° 0 mm 10 mps 734 mmHg 80%
07:00 +5°C° 0 mm 10 mps 734 mmHg 79%
08:00 +6°C° 0 mm 10 mps 735 mmHg 78%
09:00 +6°C° 0 mm 11 mps 735 mmHg 77%
10:00 +7°C° 0 mm 11 mps 735 mmHg 74%
11:00 +8°C° 0 mm 10 mps 736 mmHg 71%
12:00 +8°C° 0 mm 10 mps 736 mmHg 68%
13:00 +8°C° 0 mm 10 mps 736 mmHg 69%
14:00 +8°C° 0 mm 9 mps 736 mmHg 71%
15:00 +9°C° 0 mm 8 mps 737 mmHg 72%
16:00 +7°C° 0 mm 8 mps 737 mmHg 76%
17:00 +6°C° 0 mm 7 mps 738 mmHg 80%
18:00 +6°C° 0 mm 7 mps 738 mmHg 83%
19:00 +5°C° 0 mm 6 mps 739 mmHg 84%
20:00 +5°C° 0 mm 6 mps 739 mmHg 84%
21:00 +5°C° 0 mm 6 mps 740 mmHg 85%
22:00 +5°C° 0 mm 6 mps 740 mmHg 84%
23:00 +5°C° 0 mm 6 mps 741 mmHg 83%

26 Octubre, Lunes

Tiempo Temperatura Precipitaciones Viento Presión Humedad
00:00 +5°C° 0 mm 6 mps 741 mmHg 83%
01:00 +4°C° 0 mm 6 mps 741 mmHg 85%
02:00 +4°C° 0 mm 6 mps 742 mmHg 87%
03:00 +5°C° 0 mm 5 mps 742 mmHg 90%
04:00 +5°C° 0 mm 5 mps 743 mmHg 90%
05:00 +5°C° 0 mm 5 mps 743 mmHg 91%
06:00 +5°C° 0 mm 5 mps 744 mmHg 91%
07:00 +5°C° 0 mm 5 mps 744 mmHg 89%
08:00 +6°C° 0 mm 5 mps 745 mmHg 87%
09:00 +6°C° 0 mm 5 mps 745 mmHg 85%
10:00 +7°C° 0 mm 6 mps 746 mmHg 80%
11:00 +8°C° 0 mm 6 mps 746 mmHg 76%
12:00 +9°C° 0 mm 6 mps 746 mmHg 72%
13:00 +9°C° 0 mm 5 mps 746 mmHg 72%
14:00 +9°C° 0 mm 5 mps 746 mmHg 72%
15:00 +9°C° 0 mm 5 mps 746 mmHg 72%
16:00 +7°C° 0 mm 4 mps 747 mmHg 76%
17:00 +6°C° 0 mm 4 mps 747 mmHg 79%
18:00 +5°C° 0 mm 4 mps 747 mmHg 83%
19:00 +5°C° 0 mm 4 mps 747 mmHg 84%
20:00 +4°C° 0 mm 4 mps 747 mmHg 85%
21:00 +4°C° 0 mm 4 mps 748 mmHg 86%
22:00 +4°C° 0 mm 4 mps 747 mmHg 86%
23:00 +4°C° 0 mm 4 mps 747 mmHg 87%

27 Octubre, Martes

Tiempo Temperatura Precipitaciones Viento Presión Humedad
00:00 +4°C° 0 mm 3 mps 747 mmHg 87%
01:00 +4°C° 0 mm 3 mps 747 mmHg 87%
02:00 +4°C° 0 mm 4 mps 746 mmHg 88%
03:00 +4°C° 0 mm 4 mps 746 mmHg 88%
04:00 +5°C° 0 mm 4 mps 745 mmHg 87%
05:00 +5°C° 0 mm 5 mps 745 mmHg 86%
06:00 +5°C° 0 mm 6 mps 744 mmHg 85%
07:00 +5°C° 0.1 mm 6 mps 744 mmHg 84%
08:00 +5°C° 0.1 mm 7 mps 743 mmHg 84%
09:00 +6°C° 0.1 mm 8 mps 742 mmHg 83%
10:00 +6°C° 0.1 mm 8 mps 741 mmHg 83%
11:00 +6°C° 0.1 mm 8 mps 741 mmHg 84%
12:00 +6°C° 0.1 mm 8 mps 740 mmHg 85%
13:00 +7°C° 0.2 mm 8 mps 739 mmHg 86%
14:00 +8°C° 0.2 mm 7 mps 739 mmHg 86%
15:00 +9°C° 0.2 mm 7 mps 738 mmHg 87%
16:00 +8°C° 0.1 mm 7 mps 738 mmHg 88%
17:00 +8°C° 0.1 mm 6 mps 738 mmHg 88%
18:00 +8°C° 0.1 mm 6 mps 738 mmHg 89%
19:00 +7°C° 0 mm 6 mps 738 mmHg 89%
20:00 +7°C° 0 mm 6 mps 739 mmHg 89%
21:00 +5°C° 0 mm 6 mps 739 mmHg 89%
22:00 +5°C° 0 mm 6 mps 739 mmHg 88%
23:00 +4°C° 0 mm 6 mps 740 mmHg 87%
Mostrar más

Necesitamos Su Consentimiento

Meteoprog y nuestros Proveedores de Servicios pueden almacenar y acceder a sus datos personales como cookies, identificadores de dispositivo u otras tecnologías similares de su dispositivo y procesar dichos datos para personalizar contenido y anuncios, además de ofrecer funciones de redes sociales y analizar el tráfico.

  • Almacenar y/o acceder a información en su dispositivo

    Se puede almacenar o acceder a cookies, identificadores de dispositivo u otra información de su dispositivo para los fines anteriormente indicados.

  • Anuncios y contenido personalizados, medición de anuncios y contenido, percepciones del público, y desarrollo de productos

    Los anuncios y el contenido pueden personalizarse en base a su perfil. Se pueden añadir más datos para personalizar mejor los anuncios y contenidos. Se puede medir el rendimiento de los anuncios y contenidos. Se puede obtener la percepción sobre el público que ha visto los anuncios y contenidos. Dichos datos pueden usarse para desarrollar o mejorar la experiencia del usuario, sistemas y software.

Al hacer clic en ‘Estoy De Acuerdo’ usted permitirá el uso de las cookies, identificadores de dispositivo, balizas web u otras tecnologías similares indicadas. Su configuración puede cambiarse desde el navegador de su dispositivo.

Para ciertos fines, los intereses legítimos pueden ser considerados por encima del consentimiento. Puede leer más sobre ello en nuestra Política de Privacidad y Cookies.